Terminal Aerodrome Forecast
Issued by NWS King Salmon, AK

Home | Current Version | Previous Version | Text Only | Print | Product List | Glossary On
Versions: 1 2 3 4 5 6 7 8 9 10 11 12 13 14 15 16 17 18 19 20 21 22 23 24 25 26 27 28 29 30 31 32 33 34 35 36 37 38 39 40
000
FTAK31 PANC 022330
TAFAKN
TAF
PAKN 022330Z 0300/0324 33007KT P6SM BKN035
     FM030700 36005KT P6SM FEW035 BKN100
     FM031300 VRB03KT 1/2SM FG VV002
     FM031800 VRB05KT P6SM BKN008
     FM032000 07006KT P6SM SCT200=

USA.gov is the U.S. government's official web portal to all federal, state and local government web resources and services.